 AS12914C1  30Mar99
 JST   14:08 - 14:23
                            0D 00 00 72 96 85 60 95 92 B0 89 B3 B3 B5 B3 B2 
 HI HI A6 C7 88 55 1E 79 FF 0D 00 00 97 6F 6B 60 95 92 B0 75 B3 B2 B4 B3 B2 
 HI HI A6 C7 88 55 03 79 FF 0D 00 00 6D 39 7E 60 95 92 B0 78 B3 B2 B4 B3 B2 
 HI HI A6 C7 88 55 08 7A 0A 0D 00 00 53 5F 82 61 96 92 B0 80 B3 B2 B4 B3 B2 
 HI HI A6 C7 88 55 0E 7A FF 0D 00 00 7E 84 82 61 96 92 B0 8F B3 B2 B4 B2 B2 
 HI HI A6 C7 88 55 13 7A FF AO 00 00 8F 5D 6E 61 96 92 B0 83 B3 B1 B4 B3 B2 
 HI HI A6 C7 88 55 18 7A FF 0D 00 00 6F 48 7A 61 96 93 B0 8F B3 B1 B4 B3 B2
 HI HI A6 C7 88 55 1E 7A FF 1E 00 00 70 65 87 61 96 93 B0 73 B3 B1 B4 B3 B2 
 HI HI A6 C7 88 55 03 7A FF 0D 00 00 85 69 86 61 96 93 B0 72 B3 B1 B4 B2 B2 
 HI HI A6 C7 88 55 08 7A FF 0D 00 00 85 58 81 61 96 93 B0 7C B3 B1 B3 B2 B2 
 HI HI A6 C7 88 55 0E 7A 0A 0D 00 00 81 56 93 61 96 93 B0 75 B3 B1 B3 B2 B2 
 HI HI A6 C7 88 55 13 7A FF 0D 00 00 83 51 85 61 96 93 B0 76 B3 B0 B3 B2 B2 
 HI HI A6 C7 88 55 18 7A FF 1E 00 00 7A 4C 80 61 96 93 B0 76 B3 B0 B3 B3 B2 
 HI HI A6 C7 88 55 1E 7B FF 0D 00 00 7F 5E 7F 61 97 93 B0 7E B2 B0 B3 B2 B2 
 HI HI A6 C7 88 55 03 7C FF 0D 00 00 97 5E 8D 61 97 93 B0 76 B2 B0 B3 B2 B2
 HI HI A6 c7 88 55 0E 7E FF 0D 00 00 66 34 7E 61 97 93 B0 83 B2 B0 B2 B2 B2 
 HI HI A6 C7 88 51 13 7F FF 0D 00 00          61 97 94 B0 8B B2 AF B2 B2 B2 
 HI HI A6 C7 88 51 18 80 FF 25 00 00 A7 60 8B 61 97 94 B0 85 B2 AF B2 B2 B2 
 HI HI A6 C7 88 51 1E 80 FF 0D 00 00 82 2C 72 61 97 94 B0 78 B2 AF B2 B2 B2 
 
 £³¡Ë  £Ê£Á¥¢¥Ê¥í¥°¥Æ¥ì¥á¥È¥ê¤Î £´·î£²Æü¡Ê¶â¡Ë¤Î
    JST  14:54 - 14:10 ¤ÎºÇ¸å¤Î¹Ô¤Î´¹»»Îã¡¥

  ¥Æ¥ì¥á¥È¥ê    Æâ   ÍÆ	       ´¹»»ÃÍ  ñ °Ì
 £³£Ã	¼§µ¤¥»¥ó¥µ¡¼£Ú¼´	=	38725.5	nT
 £³£Ä	¼§µ¤¥»¥ó¥µ£Ø¼´	=	74509.8	nT
 £´£Á	ÂÀÍÛÅÅÃÓȯÀ¸ÅÅή	=	 1078.4	mA
 £´£Â	£Â½¼ÊüÅÅÅÅή	= 	  -98.8	mA
 £´£Ã	£Âü»ÒÅÅ°µ	=	   16.0	V
 £´£Ä	£ÂÃæ´Öü»ÒÅÅ°µ	=	    7.0	V
 £µ£Á	¥Ð¥¹ÅÅ°µ 	=	   17.3	V
 £µ£Â	£Ê£Ô£ÁÁ÷¿®ÅÅÎÏ	=	  818.4	mW
 £µ£Ã 	¹½Âβ¹ÅÙ£±	=	   13.5	¡î
 £µ£Ä	¹½Âβ¹ÅÙ£²	=	   14.7	¡î
 £¶£Á	¹½Âβ¹ÅÙ£³	=	   13.1	¡î
 £¶£Â	¹½Âβ¹ÅÙ£´	=	   13.1	¡î
 £¶£Ã	£Â¥»¥ë²¹ÅÙ	=          13.9	¡î

 ¡ö·×»»½èÍý¤Ï OFFICE 97 ¤ò»ÈÍÑ¡¥
 
===============   £Æ£Ï¡Ý£²£¹¡Ê¤Õ¤¸ £³¹æ¡Ë¤Î¥Ç¥¸¥È¡¼¥«¤Ë¤Ä¤¤¤Æ   ===================

   [jamsat:bb-4338]±§Ã襦¥°¥¤¥¹¤È»Ò¶¡Ã£¤È¤¤¤¦¥Æ¡¼¥Þ¤Ç £Ê£Ç£±£Ì£Ä£Ö¶É¤ÎÇò»Ò¤µ¤ó¤¬
 Åê¹Æ¤µ¤ì¤Æ¤Þ¤·¤¿¤Î¤ÇžºÜ¤µ¤»¤Æ夭¤Þ¤·¤¿¡¥
 
 JG1LDVÇò»Ò¤Ç¤¹¡£
¡ÖThis is JAS-2 ¥Û¡¼¥Û¥±¥­¥ç¡¢¡¦¡¦¡¦¡¦¡×

¡Ö¤¢¤ì¡ªÌµÀþµ¡¤«¤é¥¦¥°¥¤¥¹¤ÎÀ¼¤¬Ê¹¤³¤¨¤ë¡×
¡Ö¿Í¹©±ÒÀ±¤ÎÃæ¤Ç¤É¤¦¤ä¤Ã¤Æ¥¦¥°¥¤¥¹¤ò»ô¤Ã¤Æ¤ë¤Î¤Ç¤¹¤«¡©¡×
¡Ö±Â¤Ï²¿¤ò¤É¤Î¤è¤¦¤Ë¤ä¤ë¤Î¤Ç¤¹¤«¡©¡×
 ¡¦
 ¡¦»Ò¶¡Ã£¤ÏÊѤï¤êÈÖ¤³¤Ë¥¢¥ó¥Æ¥Ê¤ÎÊý¸þ¤ä³ÑÅÙ¤òÆ°¤«¤·¤ÆÇ®¿´¤Ë±ÒÀ±¤òÄÉÀפ·¤Æ¤¤ 
   ¤Þ¤·¤¿

   ¤³¤ì¤Ï¡¢µî¤ë£³·î£²£¶Æü¤ÎÆüËܱ§Ã辯ǯÃĤ錄¤é¤»Ê¬ÃijèÆ°¤Ç¤Î°ì¥³¥Þ¤Ç¤¹¡£
 ¥é¥Ã¥­¡¼¤Ê»ö¤Ë£Ê£Á£Ó-£²¤Î¥Ç¥¸¥È¡¼¥«±¿ÍÑ¥¹¥±¥¸¥å¡¼¥ë¤¬±äŤµ¤ì¡¢»Ò¶¡Ã£¤Ë´¶Æ°
  Ū¤Ê¡Ö±§Ã襦¥°¥¤¥¹¡×¤Î´Ñ»¡¤ò¥×¥ì¥¼¥ó¥È¤Ç¤­¤Þ¤·¤¿¡£
  ³èÆ°¾õ¶·¤Ï¡¢¸Ä¿Í¥Û¡¼¥à¥Ú¡¼¥¸
  http://www2s.biglobe.ne.jp/~gshirako/
  ¤Ç¤´Í÷¤¤¤¿¤À¤±¤Þ¤¹¡£¡¦¡¦¡¦JAMSAT¥Û¡¼¥à¥Ú¡¼¥¸¤«¤é¤â¥ê¥ó¥¯¤µ¤ì¤Æ¤¤¤Þ¤¹¡£
  Áá ¡¹
 
==============================================================================

  £³¡Ë£Æ£Ï¡Ý£²£°¡Ê¤Õ¤¸2¹æ¡Ë¤Î£Ã£×¥Æ¥ì¥á¥È¥ê¤Ï£³·î£²£´Æü¡Ê¿å¡Ë£±£¸¡§£°£·¡Ê£Ê£Ó£Ô¡Ë¤Î
     ¥Ñ¥¹¤Ç¤Ï¥Æ¥ì¥á¥È¥ê¡¼¤¬Ã±°ì¥È¡¼¥ó¤ÎϢ³²»¤«¤éÓ¹¤ê¤òȼ¤Ã¤¿Ï¢Â³²»¡¢¤µ¤é¤Ë¤æ¤é¤®¤Î
     ¤¢¤ë¿®¹æ¤Ë¤Ê¤ê¡¢¤¤¤Þ¤Þ¤Ç¤è¤ê¼ã´³¿®¹æ¤¬¼å¤¯¤Ê¤Ã¤Æ¤¤¤Þ¤·¤¿¡¥
---------------------------------------------------------------------------

 ¢£ µ°Æ»Í×ÁÇ£± ¡§½Ðŵ¤Ï¡Ö¤Õ¤¸£³¹æ¡×¤ËƱ¤¸¡¥ 
  
  FO-20
  1 20480U 90013C   99091.07276701 -.00000057  00000-0 -51662-4 0  1300
  2 20480  99.0329 300.4541 0540261 339.4075  18.5990 12.83250249428444
 
 ¢£ µ°Æ»Í×ÁÇ£² ¡§½Ðŵ¤Ï¡Ö¤Õ¤¸£³¹æ¡×¤ËƱ¤¸¡¥  
               
 Satellite: FO-20
 Catalog number: 20480
 Epoch time:      99091.07276701
 Element set:     130
 Inclination:       99.0329 deg
 RA of node:       300.4541 deg
 Eccentricity:    0.0540261
 Arg of perigee:   339.4075 deg
 Mean anomaly:      18.5990 deg
 Mean motion:   12.83250249 rev/day
 Decay rate:       -5.7e-07 rev/day^2
 Epoch rev:           42844
 Checksum:              290
  
  ====================    FO-20¤Î£Ñ£Ó£Ï¤Î¾õ¶· ==========================
   
  µ×¤·¤Ö¤ê¤Ë£Æ£Ï¡Ý£²£°¤Î£Ã£×¤Ë¤è¤ë£Ñ£Ò£Ö¤Î¾õ¶·¤¬£Ê£Á£¶£Â£Ø¶É¹¾ºê¤µ¤ó¤¬
 [jamsat:bb¡¼4339]¤ËÅê¹Æ¤µ¤ì¤Æ¤Þ¤·¤¿¤Î¤ÇžºÜ¤µ¤»¤Æ夭¤Þ¤¹¡¥

   º£Æü 19:10(JST) ¤Ë Åö¶É¤Î LOS ľÁ°¤Ç¤·¤¿¤¬¡¢JA0SUQ/JD1 ÀÆÆ£¤µ¤ó¤¬ÆîÄ»Åç
 ¤«¤é FO-20 ¤Ë CW ¤Ç QRV ¤µ¤ì¤Æ¤¤¤Þ¤·¤¿¡£ 

	  Yoshio Esaki
	  esaki@m2.people.or.jp
	  ja6bx@jamsat.or.jp 
	  ja6bx@amsat.org
  =====================================================================
 £´¡Ë£Ê£Á£Ò£Ì ¤Î¥Û¡¼¥à¥Ú¡¼¥¸¤Ë¿·¤·¤¤±¿ÍÑÄɲÃͽÄ꤬µ­ºÜ¤µ¤ì¤Æ¤¤¤Þ¤·¤¿¤Î¤Ç¤´¾Ò²ð¤·¤Þ¤¹¡¥
       ¡Ê http://www.jarl.or.jp/Japanese/3_Fuji/uy.htm ¡Ë

        ¢£ ¤Õ¤¸£³¹æ¡¿£Æ£Ï¡Ý£²£¹ ¢£  
  
  ¤Õ¤¸£³¹æ¡Ê£Ê£Á£Ó¡Ý£²¡Ë¡¡±¿ÍÑͽÄê
  ¡¡¡ö¡ö¡ö¡¡±¿ÍÑÆüÄø¤Ë¤Ä¤¤¤Æ¡¡¡ö¡ö¡ö
     £³·î£±£¹Æü¡¡¡Á¡¡£³·î£²£¹Æü¡¡¡¡¡¡¡¡ ¥Ç¥¸¥È¡¼¥«±¿ÍÑ¡Ê¡§£Æ£Í²»À¼¥á¥Ã¥»¡¼¥¸Á÷¿®¡Ë
¡¡¡¡ £³·î£²£¹Æü¡¡¡Á¡¡£´·î¡¡£µÆü¡¡¡¡¡¡¡¡ ¥¢¥Ê¥í¥°·Ï±¿ÍÑ
¡¡¡¡ £´·î¡¡£µÆü¡¡¡Á¡¡£´·î£±£²Æü¡¡¡¡¡¡¡¡ ¥Ç¥¸¥¿¥ë·Ï1200bps¥á¡¼¥ë¥Ü¥Ã¥¯¥¹±¿ÍÑ¡¡¡¡
¡¡¡¡ £´·î£±£²Æü¡¡¡Á¡¡£´·î£²£·Æü¡¡¡¡¡¡¡¡ ¥¢¥Ê¥í¥°·Ï±¿ÍÑ
   ¡ù£´·î£²£¸Æü  ¡Á  £µ·î  £¶Æü¡¡¡¡¡¡  ¥Ç¥¸¥È¡¼¥«±¿ÍÑ¡Ê¡§£Æ£Í²»À¼¥á¥Ã¥»¡¼¥¸Á÷¿®¡Ë

¡¡¡ö¡¡±¿ÍÑÆüÄø¤ÎÊѹ¹¤Ë¤Ä¤¤¤Æ¤â¾Ü¤·¤¯±ÜÍ÷¤Ç¤­¤ë¤è¤¦¤Ë¤Ê¤Ã¤Æ¤¤¤Þ¤¹¤Î¤Ç»²¾È²¼¤µ¤¤¡¥

        ¢£ ¤Õ¤¸£²¹æ¡¿£Æ£Ï¡Ý£²£° ¢£  ¡¡   
            ¡Ö¤Õ¤¸£²¹æ¡×¡¡¸½¶·                                                                                               
   JAS-1b/FO-20¡Ê¤Õ¤¸£²¹æ¡Ë¤ÎÉÔ¶ñ¹çȯÀ¸¤Ë¤Ä¤¤¤Æ
    JAS-1b¡Ê¤Õ¤¸£²¹æ¡Ë¤Î£Ã£×¥Æ¥ì¥á¥È¥ê¿®¹æ¤Ë¡¤£±£¹£¹£·Ç¯£±£°·î£±£²Æü£±£²»þ
 ¡Ê£Ê£Ó£Ô¡Ë¤ÎÆüËܾå¶õÄ̲á»þ¡¤£³·å¤Î¿ô»ú¤¬·«¤êÊÖ¤µ¤ì¤ë¤Ï¤º¤¬£³¸Ä¤ÎĹ²»¤Î
  ·«¤êÊÖ¤·¤È¤Ê¤Ã¤Æ¤¤¤ë¤È¤¤¤¦°Û¾ï¤¬È¯¸«¤µ¤ì¤Þ¤·¤¿¡£¤³¤ÎÉÔ¶ñ¹ç¤Ï¼¡¤ÎÄ̲á»þ
  ¤«¤é¤Ï²óÉü¤·¤Æ¤¤¤Þ¤·¤¿¤¬£±£³Æü£±£µ»þ£²£°Ê¬¤ÎÄ̲á»þ¤ËºÆ¤Ó´Ñ¬¤µ¤ì¤Þ¤·¤¿¡£
  ±ÒÀ±¤Î¥¢¥Ê¥í¥°·ÏÃæ·Ñ¥â¡¼¥ÉÆ°ºî¤Ï°Û¾ï¤¬Ìµ¤¯¡¤Àµ¾ï»þ¤Î¥Æ¥ì¥á¥È¥êÆâÍƤ«¤é¤Ï
  ±ÒÀ±¤ÎÆ°ºî¤Ë°Û¾ï¤Ïǧ¤á¤é¤ì¤Þ¤»¤ó¡£½¾¤Ã¤Æ¡¤Ä¾¤Á¤Ë±ÒÀ±¤Î¥ß¥Ã¥·¥ç¥ó¤Ë±Æ¶Á¤¹
  ¤ë¤³¤È¤Ï̵¤¤¤ÈͽÁÛ¤µ¤ì¤Þ¤¹¤Î¤Ç¡¤ÅöÌ̤ϥ¢¥Ê¥í¥°·ÏÃæ·Ñ¥â¡¼¥É¤ò·Ñ³¤·¤Þ¤¹¡£
  ±ÒÀ±¤Ï´û¤ËÂǤÁ¾å¤²¤Æ¤«¤é£·Ç¯£¸¥ö·î¤ò·Ð¤Æ¤ª¤ê¤Þ¤¹¤Î¤Ç¡¤º£¸å¤Ï´Æ»ë¤ò¶¯²½¤¹
  ¤ëͽÄê¤Ç¤¹¡£¥¢¥Þ¥Á¥å¥¢³Æ°Ì¤Î¥ì¥Ý¡¼¥È¤ò¤ªÂÔ¤Á¤·¤Þ¤¹¡¥   
  
  °Ê¾å  http://www.jarl.or.jp/Japanese/3_Fuji/fuji.htm
                                           
   =============   JAS-2 ¡Ê¤Õ¤¸£³¹æ¡Ë¤È¸½ºß¤Þ¤Ç¤Î¾ðÊó   ===========  
  £Á¡¥ÅÅÏäˤè¤ë¤Õ¤¸£³¹æ¤Î±¿ÍѾðÊó
      ¼ÒÃÄË¡¿ÍÆüËÜ¥¢¥Þ¥Á¥å¥¢Ï¢ÌÁ¤Ë¤è¤ë¥µ¡¼¥Ó¥¹
           £Ô£Å£Ì ¡¥   £°£³¡Ý £³£¹£´£² ¡Ý £±£°£°£°
  £Â¡¥¥¢¥Þ¥Á¥å¥¢ÌµÀþ£Æ£Á£Ø¥µ¡¼¥Ó¥¹
      £Ê£Á£Ò£Ì¤Ë¤è¤ë¤Õ¤¸£³¹æ¤Îµ°Æ»¾ðÊó¡Ê¥ª¡¼¥Ó¥Ã¥È¥«¥ì¥ó¥À¡¼¡Ë
         £Æ£Á£Ø £Î£ï¡¥  £°£³¡Ý £³£²£³£³ ¡Ý£°£°£µ£µ
  £Ã¡¥£×£×£×¥Ö¥é¥¦¥¶¤Ç¾ðÊó¤ò´Êñ¤Ë¸«¤ì¤ë¿Í¤Î¤¿¤á¤Ë£Ê£Á£Ó¡Ý£²
     ¤Õ¤¸£³¹æ¤Î±ÒÀ±¤È¤·¤Æ¤Î±¿ÍѤµ¤ì¤ë¤Þ¤Ç¤Î̾Á°¡Ë¤Î³µÍס¢ÂǤÁ¾å¤²
     ¤Þ¤Ç¤Î¾õ¶·¡¢±¿ÍÑÃæ¤Ë¤ª¤±¤ë¾õ¶·¤òÀâÌÀ¤·¤¿¥Û¡¼¥à¥Ú¡¼¥¸¤ò¾Ò²ð¤·
     ¤Æ¤ª¤­¤Þ¤¹¡¥
    ­¡ ¼ÒÃÄË¡¿ÍÆüËÜ¥¢¥Þ¥Á¥å¥¢ÌµÀþÏ¢ÌÁ¡Ê£Ê£Á£Ò£Ì¡Ë¤Î¥Û¡¼¥à¥Ú¡¼¥¸

          http://www.jarl.or.jp/Japanese/3_Fuji
 
    ­¢ ±§Ã賫ȯ»ö¶ÈÃġʣΣÁ£Ó£Ä£Á¡Ë¥Û¡¼¥à¥Ú¡¼¥¸ 
          http://www.nasda.go.jp/
         ÂǾ夲±ÒÀ±¡¡¡§Ãϵå´Ñ¬¥×¥é¥Ã¥È¥Õ¥©¡¼¥àµ»½Ñ±ÒÀ±¡ÊADEOS¡Ë 
                       ¥¢¥Þ¥Á¥å¥¢±ÒÀ±£³¹æ(JAS-2)
          http://yyy.tksc.nasda.go.jp/Home/Press/Press-j/jas-2_j.html        

  £Ä¡¥£Ê£Á£Í£Ó£Á£Ô¤Ë¤è¤ëµ°Æ»¾ðÊó¤Î³èÍÑ
        JAMSAT¤Î¥Û¡¼¥à¥Ú¡¼¥¸¤Þ¤¿¤Ïjamsat¡Ýkeps¤Îµ°Æ»Í×ÁǤè¤ê
      ±ÒÀ±¤Îµ°Æ»¾ðÊó¤òÆÀ¤ë¡¥
     £Ê£Á£Í£Ó£Á£Ô¥Û¡¼¥à¥Ú¡¼¥¸
               £Õ£Ò£Ì    http://www.jamsat.or.jp
       ¾åµ­¥Û¡¼¥à¥Ú¡¼¥¸¤Ç¤Ï³ÆÃϤǹԤï¤ì¤ë¥¢¥Þ¥Á¥å¥¢ÄÌ¿®±ÒÀ±¤Ë´Ø¤¹¤ë
      ¥ß¥å¡¼¥Æ¥£¥ó¥°¤Î¤ªÃΤ餻¤äÀ¤³¦¤Î¥¢¥Þ¥Á¥å¥¢±ÒÀ±¤Ë´Ø¤¹¤ë¾ðÊó¤¬
      ËþºÜ¤µ¤ì¤Æ¤¤¤Þ¤¹¡¥
   
 =========================================================================
       £Ê£Á£Í£Ó£Á£Ô¤Î¥á¥ó¥Ð¡¼¤Î¤´¶¨ÎϤˤè¤ê£Ê£È£¶£Í£Í£Å¡Ê¹â»³ ½¨Â¤¡Ë¤¬
    ¼¹É®¡¦ÊÔ½¸¤òôÅö¤·¤Æ¤ª¤ê¤Þ¤¹¡¥¤´»ØŦ¤Î°Õ¸«¡¢µ¿Ìä¤ä¤³¤Î¤è¤¦¤Ë¤·¤¿¤é
    ¤È¤¤¤¦¥¢¥¤¥Ç¥¢¤¬¤¢¤ê¤Þ¤·¤¿¤é¾®¤µ¤Ê¤³¤È¤Ç¤â¤«¤Þ¤¤¤Þ¤»¤ó¤Î¤Çµ¤·Ú¤Ë²¼
    µ­¥¢¥É¥ì¥¹¤Þ¤Ç¤´Ï¢Íí¤¯¤À¤µ¤¤¡¥£ê£á£í£ó£á£ô¡Ý£î£å£÷£ó¤«¤é£ê£á£ó£²
    £é£î£æ£ï¤Ø¤ÎžºÜ¤ò£Ê£È£´£Ð£È£×¶Éºä°æ¤µ¤ó¤ËôÅö¤·¤Æ夤¤Æ¤ª¤ê¤Þ¤¹¡¥
                    E¡¼mail : jh6mme@jamsat.or.jp : jh4phw@jamsat.or.jp
 ===============================   £Å£Î£Ä  ===============================